TimeEDT,TemperatureF,Dew PointF,Humidity,Sea Level PressureIn,VisibilityMPH,Wind Direction,Wind SpeedMPH,Gust SpeedMPH,PrecipitationIn,Events,Conditions,WindDirDegrees,DateUTC
12:17 AM,46.4,37.4,71,30.21,10.0,North,10.4,-,N/A,,Overcast,360,2013-05-24 04:17:00
12:53 AM,46.0,37.9,73,30.23,10.0,North,6.9,-,N/A,,Overcast,10,2013-05-24 04:53:00
1:53 AM,42.1,36.0,79,30.24,10.0,North,5.8,-,N/A,,Clear,360,2013-05-24 05:53:00
2:53 AM,39.0,36.0,89,30.25,10.0,North,5.8,-,N/A,,Clear,350,2013-05-24 06:53:00
3:53 AM,39.0,35.1,86,30.27,10.0,North,4.6,-,N/A,,Clear,350,2013-05-24 07:53:00
4:53 AM,36.0,33.1,89,30.29,10.0,North,6.9,-,N/A,,Clear,350,2013-05-24 08:53:00
5:53 AM,36.0,34.0,93,30.29,10.0,Calm,Calm,-,N/A,,Clear,0,2013-05-24 09:53:00
6:53 AM,37.0,34.0,89,30.32,10.0,Calm,Calm,-,N/A,,Clear,0,2013-05-24 10:53:00
7:53 AM,41.0,36.0,82,30.35,10.0,North,6.9,-,N/A,,Clear,360,2013-05-24 11:53:00
8:53 AM,44.1,37.0,76,30.38,10.0,NW,5.8,-,N/A,,Partly Cloudy,320,2013-05-24 12:53:00
9:53 AM,48.0,35.1,61,30.37,10.0,North,10.4,-,N/A,,Partly Cloudy,360,2013-05-24 13:53:00
10:53 AM,50.0,34.0,54,30.38,10.0,North,10.4,-,N/A,,Clear,360,2013-05-24 14:53:00
11:53 AM,53.1,36.0,52,30.39,10.0,NW,13.8,-,N/A,,Clear,320,2013-05-24 15:53:00
12:53 PM,55.0,37.9,53,30.39,10.0,North,11.5,17.3,N/A,,Partly Cloudy,350,2013-05-24 16:53:00
1:53 PM,57.0,37.9,49,30.38,10.0,North,8.1,-,N/A,,Partly Cloudy,350,2013-05-24 17:53:00
2:53 PM,60.1,37.9,44,30.38,10.0,NNW,9.2,18.4,N/A,,Partly Cloudy,340,2013-05-24 18:53:00
3:53 PM,60.1,39.0,46,30.37,10.0,North,10.4,-,N/A,,Clear,350,2013-05-24 19:53:00
4:53 PM,59.0,39.9,49,30.36,10.0,Variable,5.8,-,N/A,,Partly Cloudy,0,2013-05-24 20:53:00
5:53 PM,61.0,41.0,48,30.35,10.0,North,8.1,-,N/A,,Clear,360,2013-05-24 21:53:00
6:53 PM,59.0,41.0,51,30.32,10.0,NW,6.9,-,N/A,,Clear,310,2013-05-24 22:53:00
7:53 PM,57.0,41.0,55,30.31,10.0,WNW,3.5,-,N/A,,Clear,290,2013-05-24 23:53:00
8:53 PM,54.0,41.0,62,30.30,10.0,West,6.9,-,N/A,,Clear,280,2013-05-25 00:53:00
9:53 PM,51.1,41.0,68,30.33,10.0,WNW,6.9,-,N/A,,Clear,290,2013-05-25 01:53:00
10:53 PM,48.0,39.9,74,30.36,10.0,WNW,6.9,-,N/A,,Clear,300,2013-05-25 02:53:00
11:53 PM,45.0,39.9,82,30.38,10.0,WNW,5.8,-,N/A,,Clear,300,2013-05-25 03:53:00